x

9439040 - Astoria, Or (asto3) Weather Station

4:54 - Tue 24th Jan 2017 All times are PST. -8 hours from GMT.

  • Wind
    2mph, 6mph gusts
  • Sea Temp 39°f
  • Aire Temp 38°f
  • Sea Pressure 1021.3mb
  • 9439040 - Astoria, Or
  • 9439040 - Astoria, Or

More Historic Weather Station data

Upgrade to MSW Pro to gain access to the past 30 days of data for over 8000 Wavebouys and Weather Stations around the globe.

Join Pro

Comparision Forecast

View Surf forecast
   
mar 01/24 4:54 2 6 mph 1021.3mb 39f 38f
4:48 3 6 mph 1021.3mb 39f 38f
4:42 2 6 mph 1021.3mb 39f 39f
4:36 3 5 mph 1021.3mb 39f 39f
4:30 2 3 mph 1021.3mb 39f 39f
4:24 1 2 mph 1021.2mb 39f 39f
4:18 2 5 mph 1021.2mb 39f 39f
4:12 2
mph
1021.1mb 39f 39f
4:06 2 6 mph 1021.2mb 39f 39f
4:00 5 6 mph 1021.1mb 39f 39f
3:54 6 8 mph 1021.1mb 39f 39f
3:48 6 7 mph 1021mb 39f 38f
3:42 3 8 mph 1021mb 39f 39f
3:36 6 7 mph 1021mb 39f 39f
3:30 3 8 mph 1021mb 39f 38f
3:24 6 9 mph 1020.9mb 39f 38f
3:18 6 11 mph 1020.9mb 39f 38f
3:12 7 13 mph 1020.8mb 39f 38f
3:06 6 11 mph 1020.8mb 39f 38f
3:00 6 13 mph 1020.8mb 39f 38f
2:54 7 13 mph 1020.8mb 39f 38f
2:48 7 10 mph 1020.8mb 39f 38f
2:42 5 8 mph 1020.8mb 39f 38f
2:36 5 6 mph 1020.8mb 39f 38f
2:30 2 7 mph 1020.8mb 39f 38f
2:24 6 10 mph 1020.7mb 39f 38f
2:18 7 9 mph 1020.7mb 39f 38f
2:12 6 11 mph 1020.7mb 39f 38f
2:06 8 11 mph 1020.7mb 39f 37f
2:00 9 13 mph 1020.6mb 39f 37f
1:54 6 11 mph 1020.5mb 39f 38f
1:48 5 9 mph 1020.5mb 39f 38f
1:42 5 10 mph 1020.5mb 39f 38f
1:36 3 8 mph 1020.5mb 39f 38f
1:30 2 8 mph 1020.5mb 39f 37f
1:24 8 9 mph 1020.5mb 39f 37f
1:18 6 7 mph 1020.5mb 39f 37f
1:12 5 7 mph 1020.6mb 39f 37f
1:06 5 6 mph 1020.6mb 39f 37f
1:00 2 6 mph 1020.6mb 38f 37f
12:54 3 8 mph 1020.6mb 38f 37f
12:48 5 9 mph 1020.6mb 38f 36f
12:42 5 9 mph 1020.6mb 38f 36f
12:36 5 8 mph 1020.6mb 38f 36f
12:30 5 8 mph 1020.7mb 38f 36f
12:24 5 8 mph 1020.8mb 38f 36f
12:18 5 7 mph 1020.9mb 39f 36f
12:12 2 7 mph 1020.9mb 39f 36f
12:06 1 5 mph 1020.9mb 39f 36f
12:00 2 7 mph 1021mb 38f 36f
11:54 2 3 mph 1021mb 39f 35f
11:48  -  2 mph 1021.1mb 39f 36f
11:42 1 2 mph 1021mb 38f 35f
11:36  -  3 mph 1021mb 38f 35f
11:30  -  5 mph 1021mb 38f 35f
11:24 1 5 mph 1020.9mb 38f 35f
11:18 2 6 mph 1021mb 38f 34f
11:12 2 5 mph 1021.1mb 38f 34f
11:06 5 6 mph 1021.1mb 38f 33f
11:00 2 5 mph 1021.1mb 38f 34f
10:54  -  2 mph 1021.1mb 38f 35f
10:48 2 5 mph 1021.1mb 38f 35f
10:42 3 6 mph 1021mb 38f 34f
10:36 3 5 mph 1020.9mb 38f 33f
10:30 3 5 mph 1021mb 38f 33f
10:24 2 7 mph 1020.9mb 38f 33f
10:18 5 8 mph 1020.8mb 38f 33f
10:12 7 9 mph 1020.7mb 38f 32f
10:06 6 8 mph 1020.6mb 38f 33f
10:00 3 6 mph 1020.6mb 38f 32f
9:54 2 6 mph 1020.7mb 38f 32f
9:48 3 7 mph 1020.6mb 38f 32f
9:42 5 9 mph 1020.6mb 38f 32f
9:36 5 9 mph 1020.5mb 38f 32f
9:30 6 9 mph 1020.5mb 38f 32f
9:24 2 3 mph 1020.5mb 38f 32f
9:18  -  5 mph 1020.5mb 38f 32f
9:12 3 7 mph 1020.4mb 38f 32f
9:06 5 7 mph 1020.2mb 38f 32f
9:00 2 7 mph 1020.2mb 38f 32f
8:54 3 8 mph 1020.1mb 38f 32f
8:48 6 7 mph 1019.9mb 38f 32f
8:42 2 3 mph 1020mb 38f 32f
8:36 2 5 mph 1019.9mb 38f 31f
8:30 3 5 mph 1019.9mb 38f 31f
8:24 2 3 mph 1019.8mb 38f 31f
8:18  -  2 mph 1019.7mb 38f 31f
8:12 1 2 mph 1019.6mb 38f 31f
8:06 1 3 mph 1019.5mb 38f 31f
8:00 2
mph
1019.5mb 38f 31f
7:54 2 3 mph 1019.4mb 38f 31f
7:48 3 6 mph 1019.4mb 38f 32f
7:42 5
mph
1019.4mb 38f 32f
7:36 3 5 mph 1019.3mb 38f 32f
7:30 1 5 mph 1019.2mb 38f 32f
7:24 5 8 mph 1019.2mb 38f 32f
7:18 7 9 mph 1019.1mb 38f 32f
7:12 2 3 mph 1019.1mb 38f 33f
7:06 2 6 mph 1019.1mb 38f 33f
7:00 6 7 mph 1019.1mb 38f 33f
6:54 1 2 mph 1019.2mb 38f 33f
6:48  -  1 mph 1019.2mb - -
6:42 1 3 mph 1019.1mb 38f 33f
6:36 1 2 mph 1019.1mb 38f 33f
6:30  -  1 mph 1019.1mb 38f 33f
6:24  -  1 mph 1019.1mb 39f 33f
6:18  -  1 mph 1019mb 39f 33f
6:12  -  1 mph 1018.9mb 39f 33f
6:06  -  2 mph 1018.9mb 39f 33f
6:00  -  2 mph 1018.8mb 39f 33f
5:54 1 2 mph 1018.8mb 39f 34f
5:48 2
mph
1018.7mb 39f 33f
5:42 1
mph
1018.7mb 39f 33f
5:36  -  1 mph 1018.6mb 39f 33f
5:30  -  1 mph 1018.5mb 38f 33f
5:24 1 3 mph 1018.4mb 38f 33f
5:18 2 3 mph 1018.4mb 39f 33f
5:12 1 2 mph 1018.4mb 39f 33f
5:06  -  1 mph 1018.3mb 39f 34f
5:00  -  1 mph 1018.3mb 39f 34f
4:54  -  mph 1018.2mb 39f 33f
4:48  -  2 mph 1018.1mb 39f 33f
4:42 1 3 mph 1018mb 38f 33f
4:36  -  2 mph 1018mb 38f 34f
4:30 2 3 mph 1018mb 38f 34f
4:24 2 3 mph 1017.9mb 38f 33f
4:18 2 3 mph 1018mb 38f 33f
4:12 1
mph
1018mb 38f 33f
4:06  -  2 mph 1017.9mb 38f 33f
4:00 2 6 mph 1017.9mb 38f 33f
3:54 5 6 mph 1017.8mb 38f 33f
3:48 2 5 mph 1017.8mb 38f 34f
3:42 2 3 mph 1017.8mb 38f 34f
3:36 2 3 mph 1017.7mb 38f 34f
3:30 3
mph
1017.6mb 38f 34f
3:24 1 2 mph 1017.7mb 38f 34f
3:18 2 3 mph 1017.7mb 38f 34f
3:12 1 2 mph 1017.6mb 38f 34f
3:06 2
mph
1017.6mb 39f 34f
3:00 2
mph
1017.6mb 39f 34f
2:54 2
mph
1017.5mb 39f 35f
2:48  -  1 mph 1017.4mb 39f 35f
2:42  -  3 mph 1017.4mb 39f 34f
2:36 2 3 mph 1017.3mb 38f 35f
2:30 2 3 mph 1017.2mb 38f 35f
2:24 1 2 mph 1017.3mb 39f 35f
2:18  -  2 mph 1017.3mb 39f 35f
2:12  -  1 mph 1017.2mb 39f 35f
2:06 1
mph
1017.1mb 39f 35f
2:00 1 2 mph 1017mb 39f 35f
1:54  -  1 mph 1017mb 39f 35f
1:48  -  2 mph 1017mb 39f 35f
1:42 1 3 mph 1016.9mb 38f 35f
1:36 2
mph
1016.7mb 38f 35f
1:30 1 3 mph 1016.7mb 38f 36f
1:24 1 5 mph 1016.7mb 38f 36f
1:18  -  1 mph 1016.8mb 38f 36f
1:12 1 3 mph 1016.7mb 38f 35f
1:06  -  1 mph 1016.6mb 38f 35f
1:00 2 3 mph 1016.5mb 38f 35f
12:54 2 5 mph 1016.4mb 38f 35f
12:48 2 3 mph 1016.5mb 38f 35f
12:42 3 6 mph 1016.4mb 38f 35f
12:36 6
mph
1016.4mb 38f 36f
12:30 2
mph
1016.4mb 38f 36f
12:24 1 2 mph 1016.4mb 38f 36f
12:18 2 3 mph 1016.4mb 38f 36f
12:12  -  2 mph 1016.3mb 38f 36f
12:06 1 2 mph 1016.3mb 38f 37f
12:00  -  2 mph 1016.2mb 38f 37f
lun 01/23 11:54 1 3 mph 1016.1mb 38f 37f
11:48 1 3 mph 1016.1mb 38f 37f
11:42 1 2 mph 1016mb 38f 37f
11:36 1 3 mph 1016mb 38f 37f
11:30  -  1 mph 1015.9mb 38f 37f
11:24  -  2 mph 1015.9mb 38f 37f
11:18 1 2 mph 1015.9mb 38f 37f
11:12  -  1 mph 1015.8mb 38f 37f
11:06  -  2 mph 1015.8mb 38f 37f
11:00 2
mph
1015.7mb 38f 37f
10:54 1 2 mph 1015.7mb 38f 37f
10:48  -  2 mph 1015.5mb 38f -
10:42 2 6 mph 1015.5mb 38f -
10:36 5 6 mph 1015.5mb 38f -
10:30  -  2 mph 1015.4mb 38f 38f
10:24 1 5 mph 1015.4mb 38f 38f
10:18 5
mph
1015.4mb 38f 38f
10:12 2 3 mph 1015.4mb 38f 39f
10:06 2 3 mph 1015.3mb 38f 38f
10:00 1 2 mph 1015.2mb 38f 38f
9:54 1 2 mph 1015.2mb 38f 38f
9:48  -  5 mph 1015.1mb 38f 38f
9:42 3 5 mph 1015mb 38f 39f
9:36 1 2 mph 1015mb 38f 39f
9:30 1 2 mph 1015mb 38f 38f
9:24 2 6 mph 1014.9mb 38f 38f
9:18 6
mph
1014.8mb 38f 39f
9:12 1 2 mph 1014.7mb 38f 40f
9:06  -  3 mph 1014.6mb 38f 40f
9:00 2 5 mph 1014.6mb 38f 40f
8:54 5 8 mph 1014.5mb 38f 40f
8:48 7 8 mph 1014.4mb 38f 40f
8:42 5 6 mph 1014.4mb 38f 41f
8:36 3 6 mph 1014.4mb 38f 41f
8:30 3 5 mph 1014.4mb 38f 41f
8:24  -  1 mph 1014.4mb 38f 41f
8:18 1 2 mph 1014.3mb 38f 41f
8:12 1 2 mph 1014.3mb 38f 41f
8:06 1 2 mph 1014.3mb 38f 42f
8:00 1 2 mph 1014.2mb 38f 41f
7:54  -  2 mph 1014.1mb 38f 42f
7:48 1 5 mph 1014mb 38f 43f
7:42 1 5 mph 1013.9mb 38f 43f
7:36 5
mph
1013.9mb 38f 42f
7:30 3 6 mph 1013.9mb 38f 41f
7:24 5 7 mph 1013.9mb 38f 42f
7:18 5 6 mph 1013.8mb 38f 42f
7:12 3 7 mph 1013.7mb 38f 44f
7:06 6 9 mph 1013.6mb 38f 44f
7:00 5 9 mph 1013.5mb 38f 45f
6:54 5 8 mph 1013.4mb 39f 44f
6:48 6 9 mph 1013.3mb 39f 44f
6:42 7 9 mph 1013.2mb 39f 45f
6:36 6 8 mph 1013mb 39f 45f
6:30 2 5 mph 1012.9mb 39f 45f
6:24  -  3 mph 1012.9mb 39f 44f
6:18 2
mph
1012.9mb 39f 45f
6:12 1 2 mph 1012.8mb 39f 45f
6:06 1 2 mph 1012.7mb 39f 45f
6:00 1 2 mph 1012.6mb 39f 45f
5:54 1 2 mph 1012.4mb 39f 45f
5:48 1
mph
1012.3mb 39f 46f
5:42  -  1 mph 1012.2mb 39f 45f
5:36  -  1 mph 1012.1mb 39f 45f
5:30  -  1 mph 1012.1mb 39f 45f
5:24  -  mph 1012.1mb 39f 45f
5:18  -  1 mph 1012mb 38f 46f
5:12  -  1 mph 1012mb 38f 46f
5:06  -  1 mph 1011.8mb 38f 47f
5:00  -  mph 1011.7mb 38f 47f
4:54  -  1 mph 1011.7mb 38f 48f
4:48  -  2 mph 1011.6mb 38f 48f
4:42  -  5 mph 1011.6mb 38f 48f
4:36 1 3 mph 1011.5mb 38f 49f
4:30 1
mph
1011.3mb 38f 49f
4:24 1 2 mph 1011.3mb 38f 50f
4:18 1 2 mph 1011.3mb 38f 50f
4:12 2
mph
1011.2mb 38f 49f
4:06 2
mph
1011.1mb 38f 50f
4:00 1 2 mph 1011mb 38f 50f
3:54  -  2 mph 1010.9mb 38f 50f
3:48 1
mph
1010.8mb 38f 50f
3:42 1
mph
1010.7mb 38f 51f
3:36  -  1 mph 1010.7mb 38f 51f
3:30 1 2 mph 1010.6mb 38f 49f
3:24  -  1 mph 1010.4mb 38f 50f
3:18  -  1 mph 1010.3mb 38f 51f
3:12  -  1 mph 1010.2mb 38f 53f
3:06  -  1 mph 1010.2mb 38f 50f
3:00  -  1 mph 1010.1mb 38f 50f
2:54  -  1 mph 1010.1mb 39f 51f
2:48  -  1 mph 1010mb 39f 51f
2:42  -  mph 1009.9mb 38f 51f
2:36  -  1 mph 1009.8mb 38f 49f
2:30  -  1 mph 1009.7mb 38f 48f
2:24  -  2 mph 1009.7mb 38f 48f
2:18  -  1 mph 1009.6mb 38f 48f
2:12  -  2 mph 1009.6mb 38f 49f
2:06  -  2 mph 1009.6mb 38f 49f
2:00  -  3 mph 1009.5mb 38f 49f
1:54 2 5 mph 1009.4mb 38f 46f
1:48 5 6 mph 1009.4mb 38f 45f
1:42 3 6 mph 1009.4mb 38f 46f
1:36 3 6 mph 1009.3mb 38f 46f
1:30 3 7 mph 1009.2mb 38f 46f
1:24 3 6 mph 1009.2mb 38f 46f
1:18 3 6 mph 1009.2mb 38f 46f
1:12 5 8 mph 1009.3mb 38f 45f
1:06 5 8 mph 1009.2mb 38f 45f
1:00 6 7 mph 1009.1mb 38f 44f
12:54 3 8 mph 1009.1mb 38f 45f
12:48 7 10 mph 1009.1mb 38f 44f
12:42 6 8 mph 1009.1mb 38f 44f
12:36 3 6 mph 1009.1mb 38f 45f
12:30 3 5 mph 1009.1mb 38f 44f
12:24 2 3 mph 1009.1mb 38f 43f
12:18 2 6 mph 1009mb 38f 42f
12:12 5 8 mph 1009mb 38f 41f
12:06 3 6 mph 1008.9mb 38f 41f
12:00 2 5 mph 1008.8mb 38f 42f
11:54 3 6 mph 1008.9mb 38f 41f
11:48 5 8 mph 1008.8mb 38f 42f
11:42 5 8 mph 1008.9mb 38f 42f
11:36 1 6 mph 1008.9mb 38f 43f
11:30  -  6 mph 1008.8mb 38f 42f
11:24  -  6 mph 1008.8mb 38f 42f
11:18 5 7 mph 1008.9mb 38f 41f
11:12 6 9 mph 1008.8mb 38f 40f
11:06 6 9 mph 1008.8mb 38f 40f
11:00 6 7 mph 1008.7mb 38f 40f
10:54 6 7 mph 1008.6mb 38f 40f
10:48 6 7 mph 1008.5mb 38f 40f
10:42 6 8 mph 1008.5mb 38f 39f
10:36 5 7 mph 1008.5mb 38f 40f
10:30 5 6 mph 1008.5mb 38f 40f
10:24 1 3 mph 1008.5mb 38f 42f
10:18  -  5 mph 1008.5mb 38f 42f
10:12 1 8 mph 1008.4mb 38f 41f
10:06 5 7 mph 1008.3mb 38f 40f
10:00  -  3 mph 1008.2mb 38f 40f
9:54 1 2 mph 1008.1mb 38f 41f
9:48 1 3 mph 1008mb 38f 40f
9:42 1 3 mph 1007.9mb 38f 40f
9:36 3 8 mph 1007.8mb 38f 40f
9:30 6 9 mph 1007.8mb 38f 40f
9:24 6 9 mph 1007.7mb 38f 39f
9:18 7 10 mph 1007.6mb 38f 39f
9:12 3 7 mph 1007.5mb 38f 39f
9:06 6 9 mph 1007.3mb 38f 39f
9:00 6 8 mph 1007.1mb 38f 39f
8:54 6 8 mph 1007mb 38f 39f
8:48  -  6 mph 1006.9mb 38f 40f
8:42 5 7 mph 1006.8mb 38f 39f
8:36 5 9 mph 1006.7mb 38f 38f
8:30 2 7 mph 1006.5mb 38f 38f
8:24 2 3 mph 1006.5mb 38f 38f
8:18  -  3 mph 1006.4mb 38f 39f
8:12  -  5 mph 1006.2mb 38f 38f
8:06 2 5 mph 1006mb 38f 39f
8:00 3 5 mph 1005.8mb 38f 38f
7:54 1 3 mph 1005.8mb 38f 38f
7:48  -  2 mph 1005.7mb 38f 39f
7:42 1 3 mph 1005.6mb 38f 39f
7:36 1 5 mph 1005.5mb 38f 39f
7:30 2 5 mph 1005.4mb 38f 39f
7:24  -  3 mph 1005.3mb 38f 39f
7:18 3 9 mph 1005.2mb 38f 40f
7:12 7 10 mph 1005.2mb 38f 40f
7:06 7 10 mph 1005.2mb 38f 39f
7:00 2 9 mph 1005.1mb 38f 38f
6:54 2 6 mph 1005mb 38f 40f
6:48 2 3 mph 1004.9mb 38f 39f
6:42 2 3 mph 1004.8mb 38f 38f
6:36 1 3 mph 1004.6mb 38f 38f
6:30 3 5 mph 1004.5mb 38f 38f
6:24 2 6 mph 1004.5mb 38f 39f
6:18 3 8 mph 1004.3mb 38f 40f
6:12 3 9 mph 1004.1mb 38f 39f
6:06 5 8 mph 1004mb 38f 39f
6:00 5 9 mph 1003.9mb 38f 40f
5:54 8 11 mph 1003.8mb 38f 40f
5:48 8 11 mph 1003.8mb 38f 39f
5:42 6 10 mph 1003.8mb 38f 40f
5:36 6 10 mph 1003.7mb 38f 40f
5:30 6 11 mph 1003.7mb 38f 40f
5:24 3 11 mph 1003.6mb 38f 39f
5:18 6 11 mph 1003.4mb 38f 40f
5:12 3 11 mph 1003.4mb 38f 40f
5:06 2 5 mph 1003.4mb 38f 40f
5:00 2 5 mph 1003.3mb 38f 39f
4:54 1 5 mph 1003.3mb 38f 39f
4:48 1 3 mph 1003.3mb 38f 39f
4:42 2 5 mph 1003.2mb 38f 39f
4:36 2 3 mph 1003.1mb 38f 39f
4:30 2 5 mph 1003.1mb 38f 39f
4:24 2 5 mph 1003mb 38f 39f
4:18 2 5 mph 1002.9mb 38f 39f
4:12 2 7 mph 1002.8mb 38f 40f
4:06 3 8 mph 1002.8mb 38f 41f
4:00 1 3 mph 1002.7mb 38f 40f
3:54 2 6 mph 1002.6mb 38f 40f
3:48 5 8 mph 1002.6mb 38f 40f
3:42 2 10 mph 1002.7mb 38f 39f
3:36 6 9 mph 1002.7mb 38f 40f
3:30 6 11 mph 1002.7mb 38f 40f
3:24 7 13 mph 1002.7mb 38f 40f
3:18 8 10 mph 1002.5mb 38f 40f
3:12 5 13 mph 1002.4mb 38f 39f
3:06 7 11 mph 1002.2mb 38f 40f
3:00 3 6 mph 1002.2mb 38f 39f
2:54 2 6 mph 1002.1mb 38f 39f
2:48 3 7 mph 1002mb 38f 40f
2:42 3 7 mph 1001.9mb 38f 40f
2:36 2 5 mph 1001.9mb 38f 39f
2:30 2 7 mph 1001.9mb 38f 40f
2:24 3 7 mph 1001.9mb 38f 39f
2:18 6 8 mph 1001.8mb 38f 39f
2:12 5 6 mph 1001.7mb 38f 39f
2:06 3 6 mph 1001.5mb 38f 39f
2:00 3 7 mph 1001.6mb 38f 39f
1:54 5 8 mph 1001.7mb 38f 39f
1:48 3 7 mph 1001.7mb 38f 39f
1:42 6 8 mph 1001.7mb 38f 39f
1:36 1 6 mph 1001.6mb 38f 40f
1:30 2 7 mph 1001.6mb 38f 40f
1:24 5 7 mph 1001.6mb 38f 40f
1:18 1 3 mph 1001.5mb 38f 40f
1:12  -  5 mph 1001.5mb 38f 39f
1:06 3
mph
1001.4mb 38f 40f
1:00 1 2 mph 1001.4mb 38f 39f
12:54  -  2 mph 1001.4mb 38f 39f
12:48  -  1 mph 1001.3mb 38f 40f
12:42  -  1 mph 1001.2mb 38f 40f
12:36  -  3 mph 1001.1mb 38f 40f
12:30  -  2 mph 1001mb 38f 40f
12:24 2 3 mph 1001mb 38f 40f
12:18 5 8 mph 1001mb 38f 40f
12:12 3 6 mph 1001.1mb 38f 40f
12:06 2 5 mph 1001.1mb 38f 40f
12:00 2 3 mph 1001.1mb 38f 41f
dom 01/22 11:54 2 3 mph 1001.1mb 38f 41f
11:48 2 5 mph 1001.1mb 38f 42f
11:42 1 3 mph 1001.1mb 38f 41f
11:36 2 3 mph 1001.1mb 38f 42f
11:30 3 7 mph 1001.1mb 38f 42f
11:24  -  3 mph 1001mb 38f 41f
11:18  -  6 mph 1000.9mb 38f 42f
11:12 1 6 mph 1000.9mb 38f 42f
11:06 2 6 mph 1000.8mb 38f 42f
11:00 1 5 mph 1000.8mb 38f 42f
10:54 3 9 mph 1000.6mb 38f 42f
10:48 1 7 mph 1000.6mb 38f 42f
10:42 2 5 mph 1000.5mb 38f 42f
10:36  -  2 mph 1000.5mb 38f 41f
10:30 1 6 mph 1000.5mb 38f 42f
10:24  -  7 mph 1000.5mb 38f 42f
10:18 1 6 mph 1000.4mb 38f 42f
10:12 5 9 mph 1000.2mb 38f 42f
10:06 5 8 mph 1000.2mb 38f 43f
10:00 2 10 mph 1000.1mb 38f 42f
9:54 5 8 mph 999.9mb 38f 43f
9:48 3 9 mph 999.9mb - -
9:42 1 3 mph 999.9mb - -
9:36 1 2 mph 999.9mb - -
9:30 1 2 mph 1000mb 38f 41f
9:24  -  7 mph 999.9mb 38f 42f
9:18 5 9 mph 999.9mb 38f 43f
9:12 3 10 mph 999.8mb 38f 43f
9:06 1 5 mph 999.8mb 38f 42f
9:00 1 7 mph 999.9mb 38f 42f
8:54 5 8 mph 999.8mb 38f 43f
8:48 5 10 mph 999.8mb 38f 43f
8:42 7 9 mph 999.7mb 38f 43f
8:36 6 7 mph 999.7mb 38f 43f
8:30 5 7 mph 999.6mb 38f 43f
8:24 2 3 mph 999.7mb 38f 43f
8:18 1 2 mph 999.5mb 38f 42f
8:12 1 3 mph 999.5mb 38f 43f
8:06 2 6 mph 999.5mb 38f 43f
8:00 1 5 mph 999.6mb 38f 43f
7:54 5 8 mph 999.5mb 38f 44f
7:48 1 10 mph 999.4mb 38f 42f
7:42 3 9 mph 999.4mb 38f 43f
7:36 2 10 mph 999.4mb 38f 44f
7:30 2 10 mph 999.4mb 38f 43f
7:24 5 11 mph 999.4mb 38f 43f
7:18 2 5 mph 999.3mb 38f 43f
7:12  -  7 mph 999.3mb 38f 42f
7:06 1 6 mph 999.3mb 38f 42f
7:00 3 6 mph 999.2mb 38f 42f
6:54 3 7 mph 999.2mb 38f 43f
6:48 2 9 mph 999.2mb 38f 43f
6:42 2 8 mph 999.2mb 38f 43f
6:36 5 10 mph 999.1mb 38f 43f
6:30 5 9 mph 999.1mb 38f 43f
6:24 2 7 mph 999mb 38f 43f
6:18  -  3 mph 999mb 38f 42f
6:12  -  2 mph 999mb 38f 42f
6:06 1 5 mph 999mb 38f 43f
6:00 1 5 mph - 38f 42f
5:54 2 6 mph - 38f 43f
5:48 2 9 mph 999mb 38f 43f
5:42 6 10 mph 998.9mb 38f 44f
5:36  -  2 mph 999mb 38f 43f
5:30 2
mph
999mb 38f -
5:24 2 5 mph 999.1mb 38f -
5:18 2 3 mph 999.1mb 38f 44f
5:12 2 5 mph 999mb 38f 44f
5:06 3 6 mph 999mb 38f 44f
5:00 2 5 mph 998.9mb 38f 44f
4:54 2 3 mph 998.8mb 38f 44f
4:48 2 9 mph 998.8mb 38f 45f
4:42 9 11 mph 998.9mb 38f 46f
4:36 8 15 mph 999mb 38f 46f
4:30 6 13 mph 998.9mb 38f 47f
4:24 6 14 mph 998.9mb 38f 47f
4:18 8 13 mph 999.1mb 38f 47f
4:12 6 14 mph 999.1mb 38f 46f
4:06 9 16 mph 998.9mb 38f 46f
4:00 8 18 mph 998.8mb 38f 46f
3:54 10 15 mph 998.7mb 38f 47f
3:48 7 11 mph 998.7mb 38f -
3:42 7 10 mph 998.7mb 38f -
3:36 2 8 mph 998.6mb 38f -
3:30 3 8 mph 998.5mb 38f 46f
3:24 2 6 mph 998.4mb 38f 47f
3:18 3 5 mph 998.5mb 38f 48f
3:12 2 5 mph 998.5mb 38f 49f
3:06 2 6 mph 998.4mb 38f 49f
3:00 2 11 mph 998.5mb 38f 48f
2:54 5 9 mph 998.5mb 38f 48f
2:48 3 6 mph - 38f 46f
2:42 3
mph
- 38f 46f
2:36 2 7 mph - 38f 46f
2:30 6 8 mph 998.5mb 38f 46f
2:24 5 6 mph 998.5mb 38f 46f
2:18 3 6 mph 998.4mb 38f 47f
2:12 2 9 mph 998.4mb 38f 50f
2:06 5 7 mph 998.5mb 38f 49f
2:00 5 8 mph 998.6mb 38f 48f
1:54 6 8 mph 998.6mb 38f 48f
1:48 3 6 mph 998.5mb 38f 47f
1:42 2 6 mph 998.5mb 38f 46f
1:36 2 7 mph 998.6mb 38f 47f
1:30 3 10 mph 998.5mb 38f 46f
1:24 2 9 mph 998.3mb 38f 46f
1:18 5 11 mph 998.4mb 38f 45f
1:12 3 7 mph 998.2mb 38f 47f
1:06 1 7 mph 998mb 38f 49f
1:00 6 9 mph 997.9mb 38f 48f
12:54 3 9 mph 997.9mb 38f 49f
12:48 5 9 mph 998mb 38f 48f
12:42 6 9 mph 998.1mb 38f 47f
12:36 6 14 mph 998.3mb 38f 47f
12:30 7 16 mph 998.4mb 38f 47f
12:24 10 18 mph 998.6mb 38f 46f
12:18 1 6 mph 998.6mb 38f 45f
12:12 3 5 mph 998.4mb 38f 45f
12:06 3 6 mph 998.4mb 38f 45f
12:00 5 14 mph 998.3mb 38f 46f
11:54 5 8 mph 998.3mb 38f 45f
11:48 2 7 mph 998.3mb 38f 45f
11:42 3 6 mph 998.4mb 38f 45f
11:36 3 9 mph 998.4mb 38f 45f
11:30 3 7 mph 998.3mb 38f 45f
11:24 3 6 mph 998.2mb 38f 45f
11:18 3 5 mph 998.4mb 38f 44f
11:12 2 7 mph 998.6mb 38f 44f
11:06 5 7 mph 998.5mb 38f 44f
11:00 2 9 mph 998.7mb 39f 44f
10:54 2 6 mph 998.6mb 38f 44f
10:48 5 10 mph 998.4mb 37f 44f
10:42 5 6 mph 998.4mb 37f 43f
10:30 3 9 mph 998.3mb 37f 43f
10:24 1 6 mph 998.2mb 37f 43f
10:18 6 8 mph 997.9mb 37f 43f
10:12 6 8 mph 997.7mb 37f 43f
10:06 6 9 mph 997.7mb 37f 43f
10:00 1 5 mph 997.6mb 37f 44f
9:54 5 11 mph 997.4mb 37f 45f
9:48 7 14 mph 997.2mb 38f 45f
9:42 6 11 mph 997.2mb 38f 45f
9:36 6 15 mph 997.2mb 38f 45f
9:30 10 15 mph 997.2mb 37f 46f
9:24 8 14 mph 997mb 37f 46f
9:18 7 11 mph 996.8mb 37f 45f
9:12 7 14 mph 996.8mb 37f 45f
9:06 11 17 mph 996.6mb 37f 45f
9:00 6 8 mph 996.7mb 37f 44f
8:54 5 8 mph 996.7mb 37f 43f
8:48 3 5 mph 996.7mb 37f 42f
8:42 5 6 mph 996.5mb 37f 42f
8:36 3 6 mph 996.4mb 37f 42f
8:30 3 7 mph 996.3mb 37f 42f
8:24 3 7 mph 996.2mb 37f 42f
8:18 2 7 mph 996mb 37f 42f
8:12 8 11 mph 995.8mb 37f 42f
8:06 2 6 mph 995.8mb 37f 42f
8:00 5 7 mph 995.7mb 37f 43f
7:54 7 10 mph 995.6mb 37f 43f
7:48 7 11 mph 995.4mb 37f 43f
7:42 2 6 mph 995.2mb 37f 42f
7:36 5 9 mph 995mb 37f 43f
7:30 3 13 mph 995mb 37f 43f
7:24 3 9 mph 994.9mb 37f 42f
7:18 2 8 mph 994.9mb 37f 42f
7:12 2 6 mph 994.8mb 37f 43f
7:06 2 8 mph 994.8mb 37f 43f
7:00 1 6 mph 994.7mb 37f 43f
6:54 3 7 mph 994.7mb 37f 43f
6:48 5 7 mph 994.8mb 37f 43f
6:42 2 6 mph 994.9mb 37f 43f
6:36 6 13 mph 995.1mb 37f 44f
6:30 9 14 mph 994.8mb 37f 44f
6:24 10 16 mph 994.6mb 37f 44f
6:18 15 21 mph 994.1mb 38f 44f
6:12 8 14 mph 993.5mb 38f 43f
6:06 3 13 mph 993.3mb 38f 44f
6:00 7 15 mph 993.2mb 38f 44f
5:54 7 15 mph 992.9mb 38f 44f
5:48 10 15 mph - 38f 43f
5:42 8 11 mph - 38f 44f
5:36 7 14 mph - 38f 44f
5:30 7 15 mph 993.6mb 38f 44f
5:24 6 15 mph 993.6mb 38f 44f
5:18 6 11 mph 993.6mb 38f 44f
5:12 9 14 mph 993.5mb 38f 43f
5:06 5 14 mph 993.5mb 38f 44f
5:00 9 11 mph 993.6mb 38f 43f
4:54 6 10 mph 993.6mb 38f 44f
4:48 3 11 mph 993.5mb 37f 43f
4:42 5 10 mph 993.3mb 37f 44f
4:36 8 14 mph 993.2mb 37f 44f
4:30 7 11 mph 993.5mb 38f 43f
4:24 5 10 mph 993.7mb 38f 43f
4:18 1 7 mph 993.7mb 38f 42f
4:12 3 9 mph 993.8mb 37f 43f
4:06 7 11 mph 993.8mb 37f 44f
4:00 7 14 mph 993.9mb 37f 44f
3:54 3 9 mph 994.1mb 37f 43f
3:48 5 8 mph 994.7mb 37f 44f
3:42 3 6 mph 994.9mb 37f 43f
3:36 2 6 mph 995.1mb 37f 43f
3:30 3 9 mph 995.3mb 37f 44f
3:24 5 9 mph 995.3mb 38f 43f
3:18 2 9 mph 995.3mb 38f 42f
3:12 6 13 mph 995.3mb 38f 42f
3:06 6 8 mph 995.4mb 38f 42f
3:00 6 9 mph 995.3mb 38f 42f
2:54 5 7 mph 995.2mb 37f 42f
2:48 6 10 mph 995.1mb 37f 42f
2:42 6 8 mph 995.1mb 37f 42f
2:36 3 8 mph 995.2mb 37f 42f
2:30 3 8 mph 995.3mb 37f 42f
2:24 6 9 mph 995.4mb 37f 42f
2:18 3 9 mph 995.5mb 37f 42f
2:12 6 13 mph 995.7mb 37f 42f
2:06 3 10 mph 996.1mb 37f 41f
2:00 2 9 mph 996.1mb 37f 41f
1:54 6 8 mph 996.3mb 37f 41f
1:48 5 9 mph 996.3mb 37f 41f
1:42 3 10 mph 996.3mb 37f 41f
1:36 3 7 mph 996.5mb 37f 41f
1:30 6 13 mph 996.6mb 37f 41f
1:24 2 11 mph 996.8mb 37f 41f
1:18 3 10 mph 997mb 37f 41f
1:12 3 7 mph 997.2mb 37f 42f
1:06 3 10 mph 997.4mb 37f 41f
1:00 3 11 mph 997.7mb 37f 41f
12:54 8 11 mph 997.8mb 37f 40f
12:48 6 11 mph 998mb 37f 40f
12:42 6 8 mph 998mb 37f 40f
12:36 5 7 mph 998.2mb 37f 40f
12:30 5 7 mph 998.5mb 37f 40f
12:24 2 3 mph 998.7mb 37f 40f
12:18 2 8 mph 998.9mb 37f 40f
12:12 3 9 mph 999mb 37f 40f
12:06 5 8 mph 999.1mb 37f 40f
12:00 2 6 mph 999.1mb 37f 40f
sáb 01/21 11:54 3 6 mph 999.2mb 37f 40f
11:48 3 10 mph 999.2mb 37f 41f
11:42 6 9 mph 999.3mb 37f 41f
11:36 5 11 mph 999.3mb 37f 41f
11:30 2 9 mph 999.3mb 37f 40f
11:24 3 9 mph 999.4mb 37f 41f
11:18 3 5 mph 999.5mb 37f 40f
11:12 1 3 mph 999.6mb 37f 40f
11:06 2 6 mph 999.7mb 37f 40f
11:00 6 8 mph 999.8mb 37f 40f
10:54 6
mph
1000mb 37f 40f
10:48 2 5 mph 1000.1mb 37f -
10:42 5 9 mph 1000.3mb 37f -
10:36 6 8 mph 1000.4mb 37f -
10:30 5 7 mph 1000.4mb 37f 40f
10:24 5 7 mph 1000.5mb 37f 40f
10:18 2 7 mph 1000.4mb 37f 40f
10:12 5 7 mph 1000.5mb 37f 40f
10:06 2 3 mph 1000.6mb 37f 41f
10:00 1 9 mph 1000.6mb 37f 41f
9:54 5 9 mph 1000.7mb 37f 41f
9:48 3 7 mph 1000.6mb 37f 40f
9:42 6 9 mph 1000.7mb 37f 40f
9:36 5 8 mph 1000.7mb 37f 40f
9:30 6 7 mph 1000.7mb 37f 40f
9:24 3 6 mph 1000.7mb 37f 41f
9:18 5 9 mph 1000.7mb 37f 41f
9:12 5 9 mph 1000.7mb 37f 42f
9:06 5 8 mph 1000.6mb 37f 41f
9:00 5 8 mph 1000.7mb 37f 42f
8:54 3 8 mph 1000.7mb 37f 42f
8:48 5 7 mph 1000.7mb 37f 42f
8:42 3 7 mph 1000.6mb 37f 42f
8:36 5 7 mph 1000.6mb 37f 42f
8:30 6 7 mph 1000.5mb 37f 42f
8:24 6 8 mph 1000.4mb 37f 42f
8:18 7 9 mph 1000.4mb 37f 42f
8:12 7 8 mph 1000.4mb 37f 43f
8:06 6 7 mph 1000.3mb 37f 42f
8:00 5 8 mph 1000.3mb 37f 42f
7:54 5 7 mph 1000.3mb 37f 42f
7:48 6 8 mph 1000.2mb 37f 41f
7:42 6 8 mph 1000.2mb 37f 42f
7:36 6 10 mph 1000.2mb 37f 41f
7:30 3 9 mph 1000.1mb 37f 41f
7:24 3 6 mph 1000mb 37f 41f
7:18 2 8 mph 1000mb 37f 41f
7:12 1 2 mph 999.9mb 37f 41f
7:06 2 5 mph 999.8mb 37f 41f
7:00 5 6 mph 999.8mb 37f 41f
6:54 5 7 mph 999.7mb 37f 41f
6:48 1 7 mph 999.5mb 37f 41f
6:42 5 10 mph 999.5mb 37f 41f
6:36 8 10 mph 999.4mb 37f 41f
6:30 5 7 mph 999.3mb 38f 42f
6:24 5 8 mph 999.3mb 38f 41f
6:18 3 6 mph 999.2mb 38f 42f
6:12 3 7 mph 999.1mb 38f 42f
6:06 3 6 mph 999mb 38f 42f
6:00 3 7 mph 999mb 38f 42f
5:54 2 3 mph 998.9mb 38f 41f
5:48 2 6 mph 998.8mb 38f 42f
5:42 2 5 mph 998.7mb 38f 42f
5:36 1 2 mph 998.6mb 38f 43f
5:30 2 6 mph 998.6mb 38f 42f
5:24 5 6 mph 998.5mb 38f 42f
5:18 2 3 mph 998.4mb 38f 42f
5:12 3 5 mph 998.3mb 38f 42f
5:06 2 5 mph 998.4mb 38f 42f
5:00 2 5 mph 998.3mb 38f 43f
4:54 2 3 mph 998.1mb 38f 43f
4:48 2 3 mph 998mb 38f 43f
4:42 3 8 mph 997.8mb 38f 43f
4:36 5 6 mph 997.7mb 38f 43f
4:30 3
mph
997.6mb 38f 42f
4:24 2 3 mph 997.5mb 38f 42f
4:18 3 5 mph 997.5mb 38f 42f
4:12 3 7 mph 997.4mb 38f 42f
4:06 3 10 mph 997.3mb 38f 43f
4:00 3 6 mph 997.2mb 38f 42f
3:54 3 7 mph 997.1mb 37f 42f
3:48 1 8 mph 997mb 37f -
3:42 2 7 mph 996.9mb 37f -
3:36 2 5 mph 996.9mb 37f -
3:30 2 5 mph 996.8mb 37f 43f
3:24 3 5 mph 996.6mb 37f 43f
3:18 3 5 mph 996.5mb 37f 43f
3:12 1 3 mph 996.4mb 37f 43f
3:06 1 6 mph 996.3mb 37f 43f
3:00  -  5 mph 996.2mb 37f 43f
2:54 1 5 mph 996.2mb 37f 43f
2:48 2 5 mph 996.1mb 37f -
2:42 2 7 mph 995.9mb 37f -
2:36 2 6 mph 995.8mb 37f -
2:30 3 9 mph 995.7mb 37f 43f
2:24 3 6 mph 995.5mb 37f 43f
2:18 5 8 mph 995.4mb 37f 43f
2:12 5 7 mph 995.4mb 37f 43f
2:06 1 2 mph 995.4mb 37f 44f
2:00  -  6 mph 995.2mb 37f 44f
1:54 3 6 mph 995.1mb 37f 44f
1:48 5 7 mph 995mb 37f 44f
1:42 3 7 mph 994.9mb 37f 44f
1:36 1 5 mph 994.8mb 37f 43f
1:30 2 5 mph 994.8mb 37f 43f
1:24 2 5 mph 994.6mb 37f 44f
1:18  -  2 mph 994.5mb 37f 44f
1:12 2 5 mph 994.4mb 37f 43f
1:06 2 7 mph 994.4mb 37f 43f
1:00 6 8 mph 994.3mb 37f 43f
12:54 2 3 mph 994.2mb 37f 43f
12:48 3 8 mph 994.2mb 37f 43f
12:42 5 8 mph 994mb 37f 43f
12:36 3 7 mph 993.9mb 37f 43f
12:30 6 9 mph 993.8mb 37f 43f
12:24 5 8 mph 993.8mb 37f 44f
12:18 2 6 mph 993.7mb 37f 44f
12:12 3 7 mph 993.7mb 37f 44f
12:06 3 6 mph 993.6mb 37f 43f
12:00 2 6 mph 993.6mb 37f 43f
11:54 3 6 mph 993.6mb 37f 43f
11:48 3 7 mph 993.6mb 37f 43f
11:42 2 6 mph 993.5mb 37f 42f
11:36 2 8 mph 993.6mb 37f 42f
11:30 2 6 mph 993.6mb 37f 42f
11:24 6 8 mph 993.5mb 37f 42f
11:18 5 8 mph 993.6mb 37f 42f
11:12 6 8 mph 993.6mb 37f 42f
11:06 5 9 mph 993.5mb 37f 42f
11:00 3 9 mph 993.4mb 37f 43f
10:54 5 11 mph 993.3mb 37f 43f
10:48 8 10 mph - 37f 42f
10:42 5 9 mph - 37f 42f
10:36 7 10 mph - 37f 42f
10:30 8 10 mph 993.2mb 37f 42f
10:24 7 11 mph 993.1mb 37f 42f
10:18 7 9 mph 993mb 37f 43f
10:12 8 13 mph 992.9mb 37f 43f
10:06 7 10 mph 992.9mb 37f 42f
10:00 6 9 mph 992.9mb 37f 42f
9:54 3 10 mph 992.8mb 38f 43f
9:48 5 13 mph 992.7mb 38f 42f
9:42 6 9 mph 992.7mb 38f 42f
9:36 3 9 mph 992.7mb 37f 42f
9:30 3 8 mph 992.6mb 37f 42f
9:24 2 7 mph 992.6mb 37f 41f
9:18 6 7 mph 992.5mb 37f 40f
9:12 3 6 mph 992.5mb 37f 41f
9:06 5 7 mph 992.4mb 37f 41f
9:00 5 7 mph 992.3mb 37f 41f
8:54 3 8 mph 992.2mb 37f 41f
8:48 6 7 mph 992.2mb 37f 40f
8:42 3 7 mph 992.1mb 37f 40f
8:36 6 8 mph 992mb 37f 40f
8:30 5 8 mph 991.9mb 37f 40f
8:24 3 6 mph 991.9mb 37f 41f
8:18 1 3 mph 991.9mb 37f 40f
8:12  -  6 mph 991.8mb 37f 40f
8:06 1 6 mph 991.7mb 37f 40f
8:00 6 10 mph 991.5mb 37f 41f
7:54 5 11 mph 991.4mb 37f 41f
7:48 6 10 mph 991.3mb 37f 40f
7:42 6 8 mph 991.3mb 37f 40f
7:36 3 7 mph 991.2mb 37f 40f
7:30 2 7 mph 991.1mb 36f 40f
7:24 3 5 mph 991.1mb 36f 40f
7:18 1 5 mph 991.1mb 36f 40f
7:12 2 7 mph 991mb 36f 40f
7:06  -  6 mph 991mb 36f 40f
7:00 1 5 mph 990.9mb 37f 41f
6:54 2 6 mph 990.8mb 37f 40f
6:48 2 3 mph 990.7mb 37f 40f
6:42 1 6 mph 990.6mb 37f 40f
6:36 2 5 mph 990.5mb 37f 40f
6:30  -  3 mph 990.5mb 37f 40f
6:24 1 5 mph 990.4mb 37f 40f
6:18 3 6 mph 990.4mb 37f 40f
6:12 1 5 mph 990.3mb 37f 40f
6:06 2 6 mph 990.3mb 37f 40f
6:00 3 6 mph 990.3mb 37f 40f
5:54 1 5 mph 990.2mb 37f 40f
5:48 1 10 mph 990.1mb 37f 40f
5:42 6 8 mph 990mb 37f 40f
5:36 2 6 mph 990mb 37f 40f
5:30 2 8 mph 989.9mb 37f 41f
5:24 2 5 mph 989.9mb 37f 40f
5:18 3 5 mph 989.9mb 37f 40f
5:06 5 8 mph 989.9mb 37f 40f
5:00 2 8 mph 989.9mb 37f 40f
4:54 2 5 mph 989.9mb 37f 40f
4:48 2 5 mph 989.8mb 37f 40f
4:42 2 6 mph 989.7mb 37f 40f
4:36 5 7 mph 989.6mb 37f 39f
4:30 2 6 mph 989.6mb 37f 40f
4:24 3 7 mph 989.6mb 37f 40f
4:18 2 5 mph 989.6mb 37f 40f
4:12 6 10 mph 989.5mb 37f 41f
4:06 3 5 mph 989.5mb 37f 40f
4:00 3 6 mph 989.4mb 37f 40f
3:54 2 3 mph 989.4mb 37f 40f
3:48 2 5 mph 989.4mb 37f 40f
3:42 2 8 mph 989.5mb 37f 40f
3:36 2 7 mph 989.5mb 37f 41f
3:30 2 5 mph 989.5mb 37f 40f
3:24 2 6 mph 989.5mb 37f 40f
3:18 1 8 mph 989.5mb 37f 40f
3:12 3 8 mph 989.5mb 37f 40f
3:06 5 9 mph 989.5mb 37f 41f
3:00 6 9 mph 989.4mb 37f 40f
2:54 7 10 mph 989.3mb 37f 41f
2:48 6 9 mph 989.3mb 37f 41f
2:42 6 8 mph 989.3mb 37f 41f
2:36 3 8 mph 989.2mb 37f 41f
2:30 2 7 mph 989.1mb 37f 40f
2:24 1 7 mph 989.1mb 37f 40f
2:18 3 9 mph 989mb 37f 40f
2:12 5 6 mph 988.9mb 37f 40f
2:06 3 9 mph 988.9mb 37f 40f
2:00 3 7 mph 988.9mb 37f 41f
1:54 1 6 mph 988.8mb 37f 41f
1:48 3 6 mph 988.7mb 37f 41f
1:42 2 7 mph 988.6mb 37f 41f